Location: Star Hoppers Observatory
(42.7905°N, 83.6127°W)
Time: 04:15:15
(UTC-04:00)

NOSS 3-1 (A) - Visible Passes

Search period start: 24 March 2017 00:00
Search period end: 03 April 2017 00:00
Orbit: 836 x 1376 km, 63.4° (Epoch: 08 March)

Date Brightness Start Highest point End Pass type
(mag) Time Alt. Az. Time Alt. Az. Time Alt. Az.
24 Mar 5.6 06:32:29 10° SSE 06:37:07 25° ESE 06:42:07 10° ENE visible
25 Mar 5.9 05:49:53 10° SE 05:52:54 14° ESE 05:56:03 10° ENE visible
26 Mar 4.1 06:52:23 10° SSW 06:58:02 58° ESE 07:04:20 10° NE visible
27 Mar 4.9 06:08:25 10° S 06:13:34 35° ESE 06:19:14 10° NE visible
28 Mar 5.6 05:25:07 10° SSE 05:29:16 21° ESE 05:33:42 10° ENE visible
29 Mar 6.0 04:43:29 10° ESE 04:45:07 11° ESE 04:46:46 10° E visible
29 Mar 3.6 06:28:51 10° SSW 06:34:38 78° ESE 06:41:09 10° NE visible
30 Mar 4.2 05:44:35 10° S 05:50:05 48° ESE 05:56:12 10° NE visible
31 Mar 5.0 05:01:30 13° SSE 05:05:41 28° ESE 05:10:57 10° NE visible
01 Apr 5.5 04:18:37 12° SE 04:21:26 17° ESE 04:25:09 10° ENE visible
01 Apr 3.4 06:06:06 13° SW 06:11:18 81° NW 06:17:54 10° NE visible
02 Apr 3.7 05:23:08 24° SSW 05:26:39 65° ESE 05:33:04 10° NE visible
